[Iaude] MPEC A132: 2024 AH3 [a=1.14,e=0.35,i=0.9,H=25.6]
    mpec at marsden.cfa.harvard.edu 
    mpec at marsden.cfa.harvard.edu
       
    Thu Jan 11 17:48:09 EST 2024
    
    
  
M.P.E.C. 2024-A132                             Issued 2024 January 11, 22:46 UT
     The Minor Planet Electronic Circulars contain information on unusual
         minor planets, routine data on comets and natural satellites,
         and occasional editorial announcements.  They are published
    on behalf of Division F of the International Astronomical Union by the
          Minor Planet Center, Smithsonian Astrophysical Observatory,
                          Cambridge, MA 02138, U.S.A.
			  
             Prepared using the Tamkin Foundation Computer Network
                              MPC at CFA.HARVARD.EDU
            URL https://www.minorplanetcenter.net/    ISSN 1523-6714
                                    2024 AH3                                    
Observations:
     K24A03H*1C2024 01 10.38042008 35 47.857+20 08 14.17         19.96GVEA132G96
     K24A03H 1C2024 01 10.38554508 35 43.847+20 08 30.66         19.61GVEA132G96
     K24A03H 1C2024 01 10.39069608 35 39.779+20 08 47.11         19.71GVEA132G96
     K24A03H 1C2024 01 10.39582808 35 35.761+20 09 03.31               VEA132G96
     K24A03H KC2024 01 10.42742808 35 11.112+20 10 41.41         18.61GVEA132V06
     K24A03H KC2024 01 10.42839108 35 10.381+20 10 45.01         19.54GVEA132V06
     K24A03H KC2024 01 10.42935408 35 09.636+20 10 47.89         19.93GVEA132V06
     K24A03H KC2024 01 10.43031508 35 08.927+20 10 51.35         19.78GVEA132V06
     K24A03H KC2024 01 10.91257208 29 56.282+20 33 53.42         19.7 GVEA132J95
     K24A03H KC2024 01 10.91733108 29 53.107+20 34 08.08         19.2 GVEA132J95
     K24A03H KB2024 01 10.91886 08 29 49.26 +20 34 38.9                XEA132M45
     K24A03H KC2024 01 10.92204308 29 49.879+20 34 22.51         19.4 GVEA132J95
     K24A03H KB2024 01 10.92279 08 29 46.53 +20 34 50.2          19.4 GXEA132M45
     K24A03H KB2024 01 10.92664 08 29 43.90 +20 35 02.0          19.6 GXEA132M45
     K24A03H KB2024 01 10.96697 08 29 18.274+20 36 42.66               XEA132K74
     K24A03H 0B2024 01 10.96864 08 29 16.98 +20 40 23.1          19.6 VZEA132M49
     K24A03H 0B2024 01 10.97275 08 29 14.11 +20 40 32.9          20.0 VZEA132M49
     K24A03H KB2024 01 10.97872 08 29 10.238+20 37 15.82         19.2 GXEA132K74
     K24A03H KC2024 01 10.98818508 29 03.989+20 37 32.30         20.1 GXEA132G01
     K24A03H KB2024 01 10.99029 08 29 02.378+20 37 48.07         19.7 GXEA132K74
     K24A03H KC2024 01 10.99210808 29 01.414+20 37 43.90         20.2 GXEA132G01
     K24A03H KC2024 01 10.99579708 28 58.826+20 37 51.82         20.2 GXEA132G01
     K24A03H hC2024 01 11.04712908 28 23.27 +20 40 35.5          19.7 GVEA132L01
     K24A03H hC2024 01 11.04860908 28 22.30 +20 40 39.6          19.8 GVEA132L01
     K24A03H KC2024 01 11.05008708 28 21.30 +20 40 43.4          20.1 GVEA132L01
     K24A03H KC2024 01 11.05156608 28 20.29 +20 40 47.5          19.7 GVEA132L01
     K24A03H KB2024 01 11.27666 08 26 08.48 +20 50 58.0          19.8 GXEA132H36
     K24A03H KB2024 01 11.29379 08 25 57.31 +20 51 41.8          19.9 GXEA132H36
     K24A03H KB2024 01 11.32803 08 25 35.08 +20 53 08.7          19.7 GXEA132H36
     K24A03H KC2024 01 11.89237808 20 29.26 +21 14 36.7                VEA132587
     K24A03H KC2024 01 11.89665808 20 26.89 +21 14 47.0                VEA132587
     K24A03H KC2024 01 11.90093708 20 24.44 +21 14 56.6          20.1 GVEA132587
Observer details:
587 Sormano.  Observers F. Manca, A. Testa.  Measurer F. Manca.  0.5-m f/6.8
    reflector + CCD.
G01 Universitaetssternwarte Oldenburg.  Observer T. Hoffmann.  0.40-m f/5.8
    Ritchey-Chretien + CCD.
G96 Mt. Lemmon Survey.  Observer J. K. Hogan.  Measurers T. Beuden, V. F.
    Carvajal, D. Fay, J. B. Fazekas, D. C. Fuls, A. R. Gibbs, A. D. Grauer, H.
    Groeller, J. K. Hogan, R. A. Kowalski, S. M. Larson, G. J. Leonard, D.
    Rankin, R. L. Seaman, F. C. Shelly, K. W. Wierzchos.  1.5-m reflector +
    10K CCD.
H36 Sandlot Observatory, Scranton.  Observer G. Hug.  0.56-m f/4.8 reflector +
    CMO.
J95 Great Shefford.  Observer P. Birtwhistle.  0.41-m f/6.3 Schmidt-Cassegrain
    + CCD.
K74 Muensterschwarzach Observatory, Schwarzach.  Observer C. Gerhard.  0.30-m
    f/3.75 reflector + CMO.
L01 Visnjan Observatory, Tican.  Observers K. Korlevic, L. Poropat.  Measurer
    K. Korlevic.  1.0-m f/2.9 reflector + CCD.
M45 Starhopper Observatory, Sfantu Gheorghe.  Observer F. Ursache.  0.41-m
    f/7.5 reflector + CMO.
M49 IAS Remote Observatory, Hakos.  Observers D. Husar, M. Junius.  Measurer
    D. Husar.  0.25-m f/4.5 reflector + CMO.
V06 Catalina Sky Survey-Kuiper.  Observer K. W. Wierzchos.  Measurers T.
    Beuden, V. F. Carvajal, D. Fay, J. B. Fazekas, D. C. Fuls, A. R. Gibbs, A.
    D. Grauer, H. Groeller, J. K. Hogan, R. A. Kowalski, S. M. Larson, G. J.
    Leonard, D. Rankin, R. L. Seaman, F. C. Shelly, K. W. Wierzchos.  1.55-m
    reflector + 1K CCD.
Orbital elements:
2024 AH3                                                 Earth MOID = 0.0007 AU
Epoch 2023 Sept. 13.0 TT = JDT 2460200.5                Veres                   
M 317.61571              (2000.0)            P               Q                  
n   0.80713858     Peri.  269.92283     +0.96068966     -0.27719796             
a   1.1424503      Node   106.17020     +0.26066260     +0.88153712             
e   0.3505258      Incl.    0.91777     +0.09555302     +0.38216960             
P   1.22           H   25.69          G   0.15           U   7                  
Residuals in seconds of arc
240110 G96  0.3-  0.0     240110 J95  0.5-  0.4+    240111 L01  0.1-  0.2-
240110 G96  0.0   0.0     240110 M45  0.3-  0.1+    240111 L01  0.3+  0.0
240110 G96  0.3-  0.1+    240110 M45  0.2+  0.8+    240111 L01  0.2+  0.1-
240110 G96  0.1-  0.1-    240110 K74  0.2+  0.3+    240111 L01  0.1+  0.1+
240110 V06  0.2-  0.6-    240110 M49  0.3-  1.6+    240111 H36  0.2-  0.5+
240110 V06  0.0   0.0     240110 M49  0.0   0.2-    240111 H36  0.2-  0.1-
240110 V06  0.0   0.0     240110 K74  0.3-  0.0     240111 H36  0.2-  0.4+
240110 V06  0.4+  0.5+    240110 G01  0.1+  0.8-    240111 587  0.2-  0.2-
240110 J95  0.1+  0.2-    240110 K74  0.2-  0.3-    240111 587  0.3+  0.0
240110 J95  0.4+  0.1+    240110 G01  1.2+  0.2-    240111 587  0.3-  0.4-
240110 M45  0.1-  0.2+    240110 G01  0.1-  2.6-
Ephemeris:
2024 AH3                 a,e,i = 1.14, 0.35, 1                   q = 0.7420
Date    TT    R. A. (2000) Decl.     Delta      r    Elong.  Phase     V
2023 12 12    18 22 43.6 -26 09 45   0.1350  0.8558    16.0   161.5    32.5
...
2023 12 27    17 13 37.9 -26 35 28   0.04464 0.9405    15.4   163.9    31.4
...
2024 01 04    11 47 57.6 -00 41 19   0.01863 0.9884   105.2    73.7    19.6
...
2024 01 10    08 40 33.3 +19 47 05   0.04324 1.0245   161.5    17.8    19.8
2024 01 11    08 28 55.2 +20 39 41   0.04858 1.0305   165.3    14.0    20.0
2024 01 12    08 19 28.2 +21 19 45   0.05404 1.0365   168.6    10.8    20.1
...
2024 01 18    07 47 16.8 +23 17 05   0.08860 1.0723   176.7     3.0    20.9
...
2024 01 26    07 30 47.0 +24 03 20   0.1384  1.1189   165.3    12.9    22.4
...
2024 02 10    07 24 45.5 +24 11 24   0.2437  1.2018   148.8    25.2    24.2
M. P. C. Staff               (C) Copyright 2024 MPC           M.P.E.C. 2024-A132
    
    
More information about the Iaude
mailing list